AV395 Weather Reports


time (UTC)temp
C
wind
direction
speed
KPH
gust
KPH
rain 1hr
cm
rain 24hr
cm
rain mn
cm
humidity
%
barometer
mb
20260507144028 15 0.0 0.0 0.00 0.00 0.00 68 1018.4
20260507143051 14 0.0 0.0 0.00 0.00 0.00 70 1018.2
20260507142018 14 0.0 0.0 0.00 0.00 0.00 70 1018.1
20260507141020 13 0.0 0.0 0.00 0.00 0.00 72 1018.1
20260507140023 13 0.0 0.0 0.00 0.00 0.00 72 1018.0
20260507135027 13 0.0 0.0 0.00 0.00 0.00 74 1017.9
20260507134030 12 0.0 0.0 0.00 0.00 0.00 74 1017.7
20260507133033 12 0.0 0.0 0.00 0.00 0.00 74 1017.5
20260507132019 12 0.0 0.0 0.00 0.00 0.00 74 1017.5
20260507131021 13 0.0 0.0 0.00 0.00 0.00 73 1017.5
20260507130024 13 0.0 0.0 0.00 0.00 0.00 73 1017.4
20260507125028 13 0.0 0.0 0.00 0.00 0.00 73 1017.4
20260507124031 13 0.0 0.0 0.00 0.00 0.00 73 1017.4
20260507123016 13 0.0 0.0 0.00 0.00 0.00 73 1017.4
20260507122019 13 0.0 0.0 0.00 0.00 0.00 73 1017.4
20260507121023 13 0.0 0.0 0.00 0.00 0.00 72 1017.4
20260507120026 13 0.0 0.0 0.00 0.00 0.00 71 1017.4
20260507115023 14 0.0 0.0 0.00 0.00 0.00 70 1017.4
20260507114020 14 0.0 0.0 0.00 0.00 0.00 70 1017.4
20260507113037 14 0.0 0.0 0.00 0.00 0.00 70 1017.1
20260507112021 14 0.0 0.0 0.00 0.00 0.00 70 1017.1
20260507111024 14 0.0 0.0 0.00 0.00 0.00 71 1017.1
20260507110027 14 0.0 0.0 0.00 0.00 0.00 71 1017.0
20260507105030 14 0.0 0.0 0.00 0.00 0.00 71 1017.1
20260507104036 14 0.0 0.0 0.00 0.00 0.00 71 1017.0
20260507103018 14 0.0 1.6 0.00 0.00 0.00 71 1017.1
20260507102022 14 0.0 0.0 0.00 0.00 0.00 72 1017.0
20260507101025 14 0.0 0.0 0.00 0.00 0.00 72 1017.1
20260507100047 14 0.0 0.0 0.00 0.00 0.00 72 1017.1
20260507095031 15 0.0 0.0 0.00 0.00 0.00 71 1016.9
20260507094037 15 0.0 0.0 0.00 0.00 0.00 71 1017.1
20260507093040 15 0.0 0.0 0.00 0.00 0.00 70 1017.1
20260507081021 16 0.0 1.6 0.00 0.00 0.00 67 1016.7
20260507080018 16 0.0 0.0 0.00 0.00 0.00 66 1016.7
20260507075016 16 45 0.0 6.4 0.00 0.00 0.00 66 1016.6
20260507074019 16 0.0 0.0 0.00 0.00 0.00 64 1016.6
20260507073023 16 0.0 0.0 0.00 0.00 0.00 64 1016.7
20260507072025 16 0.0 0.0 0.00 0.00 0.00 63 1016.5
20260507071029 16 0.0 0.0 0.00 0.00 0.00 61 1016.5
20260507070026 16 0.0 0.0 0.00 0.00 0.00 61 1016.5
20260507065029 16 0.0 0.0 0.00 0.00 0.00 60 1016.5
20260507064032 16 0.0 0.0 0.00 0.00 0.00 60 1016.4
20260507063017 17 0.0 0.0 0.00 0.00 0.00 59 1016.5
20260507062021 17 0.0 0.0 0.00 0.00 0.00 58 1016.4
20260507061025 17 90 0.0 1.6 0.00 0.00 0.00 57 1016.3
20260507060047 17 0.0 0.0 0.00 0.00 0.00 57 1016.2
20260507055105 17 68 0.0 1.6 0.00 0.00 0.00 56 1016.2
20260507054016 17 0.0 0.0 0.00 0.00 0.00 56 1016.1
20260507053019 17 0.0 0.0 0.00 0.00 0.00 57 1016.0
20260507052016 17 0.0 1.6 0.00 0.00 0.00 56 1016.0
20260507051025 18 0.0 0.0 0.00 0.00 0.00 55 1016.0
20260507050050 18 0.0 0.0 0.00 0.00 0.00 55 1015.9
20260507045031 18 0.0 0.0 0.00 0.00 0.00 56 1015.9
20260507044017 18 0.0 0.0 0.00 0.00 0.00 55 1015.9
20260507043040 18 45 0.0 1.6 0.00 0.00 0.00 53 1015.7
20260507042024 18 0.0 0.0 0.00 0.00 0.00 52 1015.7
20260507041028 19 0.0 0.0 0.00 0.00 0.00 51 1015.6
20260507040030 20 0.0 0.0 0.00 0.00 0.00 50 1015.5
20260507035015 20 0.0 0.0 0.00 0.00 0.00 49 1015.2
20260507034019 20 0.0 1.6 0.00 0.00 0.00 49 1015.0
20260507033022 20 0.0 0.0 0.00 0.00 0.00 49 1014.9
20260507032025 21 0.0 0.0 0.00 0.00 0.00 49 1014.9
20260507031110 21 68 0.0 1.6 0.00 0.00 0.00 48 1014.8
20260507030032 21 0.0 0.0 0.00 0.00 0.00 48 1014.7
20260507025016 22 0.0 0.0 0.00 0.00 0.00 48 1014.6
20260507024019 22 45 0.0 1.6 0.00 0.00 0.00 47 1014.4
20260507023022 22 0.0 1.6 0.00 0.00 0.00 46 1014.4
20260507022026 23 0.0 0.0 0.00 0.00 0.00 45 1014.2
20260507021044 23 68 0.0 4.8 0.00 0.00 0.00 44 1014.1
20260507020020 23 0.0 1.6 0.00 0.00 0.00 44 1014.0
20260507015017 23 0.0 1.6 0.00 0.00 0.00 44 1013.9
20260507014021 24 0.0 1.6 0.00 0.00 0.00 43 1013.7
20260507013025 24 0.0 0.0 0.00 0.00 0.00 43 1013.6
20260507012047 25 1.6 14.5 0.00 0.00 0.00 42 1013.6
20260507011112 25 68 1.6 17.7 0.00 0.00 0.00 42 1013.6
20260507010015 25 0.0 0.0 0.00 0.00 0.00 42 1013.6
20260507005018 25 90 0.0 1.6 0.00 0.00 0.00 41 1013.5
20260507004023 26 0.0 0.0 0.00 0.00 0.00 40 1013.6
20260507003025 26 68 1.6 16.1 0.00 0.00 0.00 40 1013.6
20260507002028 26 0.0 0.0 0.00 0.00 0.00 40 1013.6
20260507001032 26 0.0 0.0 0.00 0.00 0.00 40 1013.6
20260507000017 26 0.0 0.0 0.00 0.00 0.00 40 1013.5
20260506235020 27 68 0.0 1.6 0.00 0.00 0.00 40 1013.4
20260506234023 27 0.0 0.0 0.00 0.00 0.00 41 1013.5
20260506233026 28 68 0.0 8.0 0.00 0.00 0.00 41 1013.5
20260506232029 27 0.0 0.0 0.00 0.00 0.00 41 1013.6
20260506231033 27 0.0 0.0 0.00 0.00 0.00 41 1013.8
20260506230018 27 0.0 0.0 0.00 0.00 0.00 40 1013.9
20260506225021 27 0.0 0.0 0.00 0.00 0.00 41 1013.9
20260506224024 27 0.0 0.0 0.00 0.00 0.00 40 1014.0
20260506223021 27 0.0 3.2 0.00 0.00 0.00 39 1014.1
20260506222019 28 0.0 0.0 0.00 0.00 0.00 39 1014.1
20260506221016 28 0.0 3.2 0.00 0.00 0.00 38 1014.0
20260506220019 30 0.0 0.0 0.00 0.00 0.00 36 1014.0
20260506215022 30 0.0 0.0 0.00 0.00 0.00 37 1014.2
20260506214025 30 0.0 0.0 0.00 0.00 0.00 37 1014.4
20260506213029 30 0.0 0.0 0.00 0.00 0.00 37 1014.5
20260506212032 30 0.0 0.0 0.00 0.00 0.00 36 1014.7
20260506211038 30 0.0 0.0 0.00 0.00 0.00 37 1014.8
20260506210020 29 0.0 0.0 0.00 0.00 0.00 37 1014.9
20260506205023 30 0.0 0.0 0.00 0.00 0.00 35 1014.9
20260506204026 29 0.0 0.0 0.00 0.00 0.00 35 1015.1
20260506203051 29 0.0 1.6 0.00 0.00 0.00 36 1015.1
20260506202015 30 0.0 0.0 0.00 0.00 0.00 37 1015.1
20260506201018 30 0.0 0.0 0.00 0.00 0.00 37 1015.2
20260506200016 30 0.0 0.0 0.00 0.00 0.00 37 1015.2
20260506195019 28 90 0.0 1.6 0.00 0.00 0.00 38 1015.2
20260506194022 29 0.0 0.0 0.00 0.00 0.00 39 1015.2
20260506193025 28 0.0 0.0 0.00 0.00 0.00 40 1015.2
20260506192029 27 0.0 1.6 0.00 0.00 0.00 40 1015.4
20260506191026 27 0.0 0.0 0.00 0.00 0.00 42 1015.4
20260506190018 26 0.0 0.0 0.00 0.00 0.00 44 1015.5
20260506185020 26 0.0 0.0 0.00 0.00 0.00 45 1015.7
20260506184017 26 68 0.0 1.6 0.00 0.00 0.00 46 1015.9
20260506183015 26 0.0 0.0 0.00 0.00 0.00 47 1016.0
20260506182030 25 0.0 0.0 0.00 0.00 0.00 49 1016.2
20260506181015 25 0.0 0.0 0.00 0.00 0.00 51 1016.3
20260506180040 23 68 1.6 12.9 0.00 0.00 0.00 50 1016.5
20260506175021 23 77 12.9 16.1 0.00 0.00 0.00 51 1016.7
20260506174025 23 48 3.2 12.9 0.00 0.00 0.00 52 1016.9
20260506173028 23 0.0 0.0 0.00 0.00 0.00 52 1017.0
20260506172031 23 0.0 0.0 0.00 0.00 0.00 52 1016.9
20260506171017 22 0.0 0.0 0.00 0.00 0.00 54 1017.0
20260506170019 22 0.0 0.0 0.00 0.00 0.00 55 1017.2
20260506165023 21 0.0 0.0 0.00 0.00 0.00 56 1017.2
20260506164047 21 0.0 0.0 0.00 0.00 0.00 56 1017.2
20260506163029 21 0.0 0.0 0.00 0.00 0.00 57 1017.0
20260506162034 20 0.0 0.0 0.00 0.00 0.00 59 1017.0
20260506161038 20 0.0 1.6 0.00 0.00 0.00 59 1017.1
20260506160021 20 0.0 0.0 0.00 0.00 0.00 60 1017.2
20260506155023 20 0.0 0.0 0.00 0.00 0.00 61 1017.2
20260506154047 19 0.0 0.0 0.00 0.00 0.00 62 1017.2
20260506153024 18 0.0 0.0 0.00 0.00 0.00 64 1017.2
20260506152015 18 0.0 0.0 0.00 0.00 0.00 64 1017.2
20260506151018 17 0.0 0.0 0.00 0.00 0.00 66 1017.2
20260506150016 17 0.0 0.0 0.00 0.00 0.00 68 1017.2
20260506145025 17 0.0 0.0 0.00 0.00 0.00 69 1017.1